Погода в Яковлевке

Россия / Приморский край     44°25′29″N   133°28′42″E
темп.,
°C
ветер,
м/с
пор.,
м/с
влажн.,
%
обл.,
%
осадки,
мм/ч
давл.,
гПа
погр.,
м
17 апреля, сб
сб1701:00+6ю3881100 2.3 1009367
04:00+4ю239294 2.3 101059
07:00+3ю24905 0.0 101187
10:00+10юз25460 0.0 10121304
13:00+13зюз482998 0.0 10123061
16:00+13з472599 0.0 10102979
19:00+10сз233510 0.0 101062
22:00+6ссз12546 0.0 101114
18 апреля, вс
вс1801:00+4с11614 0.0 101113
04:00+3сз226997 0.0 100935
07:00+3сз238241 0.0 101065
10:00+8ссз466441 0.0 10081015
13:00+12ссз584455 0.0 10051939
16:00+14ссз6103585 0.0 10032424
19:00+11ссз510478 0.0 10031526
22:00+8сз4105962 0.0 1004532
19 апреля, пн
пн1901:00+5зсз237522 0.0 100464
04:00+4з237875 0.0 100462
07:00+4з117852 0.0 100421
10:00+12сз36495 0.0 10031086
13:00+15сз59344 0.0 10011987
16:00+17сз511250 0.0 10002220
19:00+14з233553 0.0 100075
22:00+10юз2645100 0.0 100189
20 апреля, вт
вт2001:00+6ссз5134012 0.0 10091405
04:00+2сз37410 0.0 1012388
07:00+1з310440 0.0 10121034
10:00+7зсз722230 0.0 10112680
13:00+10сз921195 0.0 10113136
16:00+10сз714210 0.0 10122124
19:00+9сз514280 0.0 10122049
22:00+5зсз311350 0.0 1015309
21 апреля, ср
ср2101:00+4зсз21400 0.0 101812
04:00+2юз11490 0.0 101913
07:00+3ююз22525 0.0 102130
10:00+14з26241 0.0 1020892
13:00+18сз59180 0.0 10181658
16:00+20сз510184 0.0 10171942
19:00+17сз22300 0.0 101825
22:00+11з11370 0.0 101911